Export;EXP-2023-01 (20230707 09:45);;;StationsCode;NL49551;NL49553
Periode;20110101 00:00 - 20120101 00:00;;;BeheerderMeetStation;GGD A'dam;GGD A'dam
Bron;https://data.rivm.nl/data/luchtmeetnet;;;StationsNaam;IJmuiden-Kanaaldijk;Wijk aan Zee-Burgemeester Rothestraat
Beschrijving data;https://data.rivm.nl/data/luchtmeetnet/readme.pdf;;;Latitude,Longitude;(52.463039,4.601842);(52.493992,4.601986)
Accreditatienummer;https://www.rva.nl/alle-geaccrediteerden/;;;StationsGebied;stad;stad
;;;;StationsType;industrie;industrie
;;;;Meetprincipe;Ultraviolet fluorescentie (UV-F);Ultraviolet fluorescentie (UV-F)
;;;;Meetopstelling;H2S metingen met een Thermo monitor;H2S metingen met een Thermo monitor
;;;;Accreditatienummer;nvt;nvt
Component;Bep.periode;Eenheid; Begindatumtijd;Einddatumtijd;NL49551;NL49553
H2S;uur;�g/m�;20110101 00:00;20110101 01:00;1;1
H2S;uur;�g/m�;20110101 01:00;20110101 02:00;0;0
H2S;uur;�g/m�;20110101 02:00;20110101 03:00;0;0
H2S;uur;�g/m�;20110101 03:00;20110101 04:00;0;0
H2S;uur;�g/m�;20110101 04:00;20110101 05:00;0;0
H2S;uur;�g/m�;20110101 05:00;20110101 06:00;0;0
H2S;uur;�g/m�;20110101 06:00;20110101 07:00;0;0
H2S;uur;�g/m�;20110101 07:00;20110101 08:00;0;0
H2S;uur;�g/m�;20110101 08:00;20110101 09:00;0;0
H2S;uur;�g/m�;20110101 09:00;20110101 10:00;0;0
H2S;uur;�g/m�;20110101 10:00;20110101 11:00;2;0
H2S;uur;�g/m�;20110101 11:00;20110101 12:00;4;0
H2S;uur;�g/m�;20110101 12:00;20110101 13:00;3;0
H2S;uur;�g/m�;20110101 13:00;20110101 14:00;5;0
H2S;uur;�g/m�;20110101 14:00;20110101 15:00;6;0
H2S;uur;�g/m�;20110101 15:00;20110101 16:00;4;0
H2S;uur;�g/m�;20110101 16:00;20110101 17:00;1;0
H2S;uur;�g/m�;20110101 17:00;20110101 18:00;4;0
H2S;uur;�g/m�;20110101 18:00;20110101 19:00;4;0
H2S;uur;�g/m�;20110101 19:00;20110101 20:00;5;0
H2S;uur;�g/m�;20110101 20:00;20110101 21:00;5;0
H2S;uur;�g/m�;20110101 21:00;20110101 22:00;4;0
H2S;uur;�g/m�;20110101 22:00;20110101 23:00;4;0
H2S;uur;�g/m�;20110101 23:00;20110102 00:00;4;0
H2S;uur;�g/m�;20110102 00:00;20110102 01:00;3;0
H2S;uur;�g/m�;20110102 01:00;20110102 02:00;4;0
H2S;uur;�g/m�;20110102 02:00;20110102 03:00;3;0
H2S;uur;�g/m�;20110102 03:00;20110102 04:00;3;0
H2S;uur;�g/m�;20110102 04:00;20110102 05:00;1;0
H2S;uur;�g/m�;20110102 05:00;20110102 06:00;1;0
H2S;uur;�g/m�;20110102 06:00;20110102 07:00;4;0
H2S;uur;�g/m�;20110102 07:00;20110102 08:00;5;0
H2S;uur;�g/m�;20110102 08:00;20110102 09:00;3;0
H2S;uur;�g/m�;20110102 09:00;20110102 10:00;5;0
H2S;uur;�g/m�;20110102 10:00;20110102 11:00;5;0
H2S;uur;�g/m�;20110102 11:00;20110102 12:00;7;0
H2S;uur;�g/m�;20110102 12:00;20110102 13:00;0;0
H2S;uur;�g/m�;20110102 13:00;20110102 14:00;10;0
H2S;uur;�g/m�;20110102 14:00;20110102 15:00;3;0
H2S;uur;�g/m�;20110102 15:00;20110102 16:00;0;0
H2S;uur;�g/m�;20110102 16:00;20110102 17:00;0;0
H2S;uur;�g/m�;20110102 17:00;20110102 18:00;0;0
H2S;uur;�g/m�;20110102 18:00;20110102 19:00;;
H2S;uur;�g/m�;20110102 19:00;20110102 20:00;8;0
H2S;uur;�g/m�;20110102 20:00;20110102 21:00;8;0
H2S;uur;�g/m�;20110102 21:00;20110102 22:00;7;0
H2S;uur;�g/m�;20110102 22:00;20110102 23:00;7;0
H2S;uur;�g/m�;20110102 23:00;20110103 00:00;9;0
H2S;uur;�g/m�;20110103 00:00;20110103 01:00;9;0
H2S;uur;�g/m�;20110103 01:00;20110103 02:00;3;0
H2S;uur;�g/m�;20110103 02:00;20110103 03:00;3;0
H2S;uur;�g/m�;20110103 03:00;20110103 04:00;1;0
H2S;uur;�g/m�;20110103 04:00;20110103 05:00;2;0
H2S;uur;�g/m�;20110103 05:00;20110103 06:00;5;0
H2S;uur;�g/m�;20110103 06:00;20110103 07:00;2;0
H2S;uur;�g/m�;20110103 07:00;20110103 08:00;1;0
H2S;uur;�g/m�;20110103 08:00;20110103 09:00;2;0
H2S;uur;�g/m�;20110103 09:00;20110103 10:00;2;0
H2S;uur;�g/m�;20110103 10:00;20110103 11:00;1;0
H2S;uur;�g/m�;20110103 11:00;20110103 12:00;1;0
H2S;uur;�g/m�;20110103 12:00;20110103 13:00;1;0
H2S;uur;�g/m�;20110103 13:00;20110103 14:00;1;0
H2S;uur;�g/m�;20110103 14:00;20110103 15:00;1;0
H2S;uur;�g/m�;20110103 15:00;20110103 16:00;1;0
H2S;uur;�g/m�;20110103 16:00;20110103 17:00;1;0
H2S;uur;�g/m�;20110103 17:00;20110103 18:00;1;0
H2S;uur;�g/m�;20110103 18:00;20110103 19:00;2;0
H2S;uur;�g/m�;20110103 19:00;20110103 20:00;2;0
H2S;uur;�g/m�;20110103 20:00;20110103 21:00;1;0
H2S;uur;�g/m�;20110103 21:00;20110103 22:00;1;0
H2S;uur;�g/m�;20110103 22:00;20110103 23:00;2;9
H2S;uur;�g/m�;20110103 23:00;20110104 00:00;1;6
H2S;uur;�g/m�;20110104 00:00;20110104 01:00;2;15
H2S;uur;�g/m�;20110104 01:00;20110104 02:00;2;16
H2S;uur;�g/m�;20110104 02:00;20110104 03:00;1;7
H2S;uur;�g/m�;20110104 03:00;20110104 04:00;2;7
H2S;uur;�g/m�;20110104 04:00;20110104 05:00;2;0
H2S;uur;�g/m�;20110104 05:00;20110104 06:00;2;1
H2S;uur;�g/m�;20110104 06:00;20110104 07:00;2;5
H2S;uur;�g/m�;20110104 07:00;20110104 08:00;2;8
H2S;uur;�g/m�;20110104 08:00;20110104 09:00;2;8
H2S;uur;�g/m�;20110104 09:00;20110104 10:00;2;5
H2S;uur;�g/m�;20110104 10:00;20110104 11:00;2;3
H2S;uur;�g/m�;20110104 11:00;20110104 12:00;2;10
H2S;uur;�g/m�;20110104 12:00;20110104 13:00;2;3
H2S;uur;�g/m�;20110104 13:00;20110104 14:00;1;3
H2S;uur;�g/m�;20110104 14:00;20110104 15:00;2;3
H2S;uur;�g/m�;20110104 15:00;20110104 16:00;2;5
H2S;uur;�g/m�;20110104 16:00;20110104 17:00;1;7
H2S;uur;�g/m�;20110104 17:00;20110104 18:00;2;5
H2S;uur;�g/m�;20110104 18:00;20110104 19:00;1;6
H2S;uur;�g/m�;20110104 19:00;20110104 20:00;;
H2S;uur;�g/m�;20110104 20:00;20110104 21:00;2;2
H2S;uur;�g/m�;20110104 21:00;20110104 22:00;2;4
H2S;uur;�g/m�;20110104 22:00;20110104 23:00;2;1
H2S;uur;�g/m�;20110104 23:00;20110105 00:00;1;1
H2S;uur;�g/m�;20110105 00:00;20110105 01:00;2;2
H2S;uur;�g/m�;20110105 01:00;20110105 02:00;1;1
H2S;uur;�g/m�;20110105 02:00;20110105 03:00;1;0
H2S;uur;�g/m�;20110105 03:00;20110105 04:00;1;1
H2S;uur;�g/m�;20110105 04:00;20110105 05:00;1;0
H2S;uur;�g/m�;20110105 05:00;20110105 06:00;1;0
H2S;uur;�g/m�;20110105 06:00;20110105 07:00;1;0
H2S;uur;�g/m�;20110105 07:00;20110105 08:00;1;0
H2S;uur;�g/m�;20110105 08:00;20110105 09:00;2;0
H2S;uur;�g/m�;20110105 09:00;20110105 10:00;1;0
H2S;uur;�g/m�;20110105 10:00;20110105 11:00;1;0
H2S;uur;�g/m�;20110105 11:00;20110105 12:00;1;0
H2S;uur;�g/m�;20110105 12:00;20110105 13:00;2;1
H2S;uur;�g/m�;20110105 13:00;20110105 14:00;1;1
H2S;uur;�g/m�;20110105 14:00;20110105 15:00;1;0
H2S;uur;�g/m�;20110105 15:00;20110105 16:00;1;1
H2S;uur;�g/m�;20110105 16:00;20110105 17:00;2;1
H2S;uur;�g/m�;20110105 17:00;20110105 18:00;2;1
H2S;uur;�g/m�;20110105 18:00;20110105 19:00;2;1
H2S;uur;�g/m�;20110105 19:00;20110105 20:00;2;1
H2S;uur;�g/m�;20110105 20:00;20110105 21:00;2;0
H2S;uur;�g/m�;20110105 21:00;20110105 22:00;1;0
H2S;uur;�g/m�;20110105 22:00;20110105 23:00;2;0
H2S;uur;�g/m�;20110105 23:00;20110106 00:00;2;0
H2S;uur;�g/m�;20110106 00:00;20110106 01:00;1;8
H2S;uur;�g/m�;20110106 01:00;20110106 02:00;2;6
H2S;uur;�g/m�;20110106 02:00;20110106 03:00;2;7
H2S;uur;�g/m�;20110106 03:00;20110106 04:00;2;3
H2S;uur;�g/m�;20110106 04:00;20110106 05:00;1;3
H2S;uur;�g/m�;20110106 05:00;20110106 06:00;2;1
H2S;uur;�g/m�;20110106 06:00;20110106 07:00;2;0
H2S;uur;�g/m�;20110106 07:00;20110106 08:00;1;1
H2S;uur;�g/m�;20110106 08:00;20110106 09:00;2;1
H2S;uur;�g/m�;20110106 09:00;20110106 10:00;2;0
H2S;uur;�g/m�;20110106 10:00;20110106 11:00;2;5
H2S;uur;�g/m�;20110106 11:00;20110106 12:00;2;7
H2S;uur;�g/m�;20110106 12:00;20110106 13:00;2;5
H2S;uur;�g/m�;20110106 13:00;20110106 14:00;2;1
H2S;uur;�g/m�;20110106 14:00;20110106 15:00;2;0
H2S;uur;�g/m�;20110106 15:00;20110106 16:00;2;0
H2S;uur;�g/m�;20110106 16:00;20110106 17:00;2;0
H2S;uur;�g/m�;20110106 17:00;20110106 18:00;3;0
H2S;uur;�g/m�;20110106 18:00;20110106 19:00;2;0
H2S;uur;�g/m�;20110106 19:00;20110106 20:00;2;0
H2S;uur;�g/m�;20110106 20:00;20110106 21:00;;
H2S;uur;�g/m�;20110106 21:00;20110106 22:00;0;0
H2S;uur;�g/m�;20110106 22:00;20110106 23:00;0;0
H2S;uur;�g/m�;20110106 23:00;20110107 00:00;0;0
H2S;uur;�g/m�;20110107 00:00;20110107 01:00;0;0
H2S;uur;�g/m�;20110107 01:00;20110107 02:00;0;0
H2S;uur;�g/m�;20110107 02:00;20110107 03:00;0;0
H2S;uur;�g/m�;20110107 03:00;20110107 04:00;0;0
H2S;uur;�g/m�;20110107 04:00;20110107 05:00;0;0
H2S;uur;�g/m�;20110107 05:00;20110107 06:00;0;0
H2S;uur;�g/m�;20110107 06:00;20110107 07:00;0;0
H2S;uur;�g/m�;20110107 07:00;20110107 08:00;0;0
H2S;uur;�g/m�;20110107 08:00;20110107 09:00;0;0
H2S;uur;�g/m�;20110107 09:00;20110107 10:00;0;0
H2S;uur;�g/m�;20110107 10:00;20110107 11:00;0;0
H2S;uur;�g/m�;20110107 11:00;20110107 12:00;0;0
H2S;uur;�g/m�;20110107 12:00;20110107 13:00;0;0
H2S;uur;�g/m�;20110107 13:00;20110107 14:00;0;0
H2S;uur;�g/m�;20110107 14:00;20110107 15:00;0;0
H2S;uur;�g/m�;20110107 15:00;20110107 16:00;0;0
H2S;uur;�g/m�;20110107 16:00;20110107 17:00;0;1
H2S;uur;�g/m�;20110107 17:00;20110107 18:00;0;1
H2S;uur;�g/m�;20110107 18:00;20110107 19:00;0;0
H2S;uur;�g/m�;20110107 19:00;20110107 20:00;0;1
H2S;uur;�g/m�;20110107 20:00;20110107 21:00;0;0
H2S;uur;�g/m�;20110107 21:00;20110107 22:00;0;0
H2S;uur;�g/m�;20110107 22:00;20110107 23:00;0;1
H2S;uur;�g/m�;20110107 23:00;20110108 00:00;0;1
H2S;uur;�g/m�;20110108 00:00;20110108 01:00;0;4
H2S;uur;�g/m�;20110108 01:00;20110108 02:00;0;8
H2S;uur;�g/m�;20110108 02:00;20110108 03:00;0;2
H2S;uur;�g/m�;20110108 03:00;20110108 04:00;0;0
H2S;uur;�g/m�;20110108 04:00;20110108 05:00;0;1
H2S;uur;�g/m�;20110108 05:00;20110108 06:00;0;0
H2S;uur;�g/m�;20110108 06:00;20110108 07:00;0;0
H2S;uur;�g/m�;20110108 07:00;20110108 08:00;0;0
H2S;uur;�g/m�;20110108 08:00;20110108 09:00;0;0
H2S;uur;�g/m�;20110108 09:00;20110108 10:00;0;0
H2S;uur;�g/m�;20110108 10:00;20110108 11:00;0;5
H2S;uur;�g/m�;20110108 11:00;20110108 12:00;0;1
H2S;uur;�g/m�;20110108 12:00;20110108 13:00;0;8
H2S;uur;�g/m�;20110108 13:00;20110108 14:00;0;3
H2S;uur;�g/m�;20110108 14:00;20110108 15:00;0;1
H2S;uur;�g/m�;20110108 15:00;20110108 16:00;0;0
H2S;uur;�g/m�;20110108 16:00;20110108 17:00;0;0
H2S;uur;�g/m�;20110108 17:00;20110108 18:00;0;0
H2S;uur;�g/m�;20110108 18:00;20110108 19:00;0;0
H2S;uur;�g/m�;20110108 19:00;20110108 20:00;0;0
H2S;uur;�g/m�;20110108 20:00;20110108 21:00;0;0
H2S;uur;�g/m�;20110108 21:00;20110108 22:00;;
H2S;uur;�g/m�;20110108 22:00;20110108 23:00;0;0
H2S;uur;�g/m�;20110108 23:00;20110109 00:00;0;0
H2S;uur;�g/m�;20110109 00:00;20110109 01:00;0;0
H2S;uur;�g/m�;20110109 01:00;20110109 02:00;0;0
H2S;uur;�g/m�;20110109 02:00;20110109 03:00;0;1
H2S;uur;�g/m�;20110109 03:00;20110109 04:00;0;1
H2S;uur;�g/m�;20110109 04:00;20110109 05:00;0;0
H2S;uur;�g/m�;20110109 05:00;20110109 06:00;0;0
H2S;uur;�g/m�;20110109 06:00;20110109 07:00;0;1
H2S;uur;�g/m�;20110109 07:00;20110109 08:00;0;0
H2S;uur;�g/m�;20110109 08:00;20110109 09:00;0;0
H2S;uur;�g/m�;20110109 09:00;20110109 10:00;0;0
H2S;uur;�g/m�;20110109 10:00;20110109 11:00;0;0
H2S;uur;�g/m�;20110109 11:00;20110109 12:00;0;0
H2S;uur;�g/m�;20110109 12:00;20110109 13:00;0;0
H2S;uur;�g/m�;20110109 13:00;20110109 14:00;0;0
H2S;uur;�g/m�;20110109 14:00;20110109 15:00;0;0
H2S;uur;�g/m�;20110109 15:00;20110109 16:00;0;0
H2S;uur;�g/m�;20110109 16:00;20110109 17:00;0;0
H2S;uur;�g/m�;20110109 17:00;20110109 18:00;0;0
H2S;uur;�g/m�;20110109 18:00;20110109 19:00;0;0
H2S;uur;�g/m�;20110109 19:00;20110109 20:00;0;0
H2S;uur;�g/m�;20110109 20:00;20110109 21:00;0;0
H2S;uur;�g/m�;20110109 21:00;20110109 22:00;0;0
H2S;uur;�g/m�;20110109 22:00;20110109 23:00;0;0
H2S;uur;�g/m�;20110109 23:00;20110110 00:00;0;0
H2S;uur;�g/m�;20110110 00:00;20110110 01:00;0;0
H2S;uur;�g/m�;20110110 01:00;20110110 02:00;0;0
H2S;uur;�g/m�;20110110 02:00;20110110 03:00;0;1
H2S;uur;�g/m�;20110110 03:00;20110110 04:00;0;6
H2S;uur;�g/m�;20110110 04:00;20110110 05:00;0;6
H2S;uur;�g/m�;20110110 05:00;20110110 06:00;0;10
H2S;uur;�g/m�;20110110 06:00;20110110 07:00;0;7
H2S;uur;�g/m�;20110110 07:00;20110110 08:00;0;6
H2S;uur;�g/m�;20110110 08:00;20110110 09:00;0;1
H2S;uur;�g/m�;20110110 09:00;20110110 10:00;0;1
H2S;uur;�g/m�;20110110 10:00;20110110 11:00;0;1
H2S;uur;�g/m�;20110110 11:00;20110110 12:00;0;0
H2S;uur;�g/m�;20110110 12:00;20110110 13:00;0;0
H2S;uur;�g/m�;20110110 13:00;20110110 14:00;0;0
H2S;uur;�g/m�;20110110 14:00;20110110 15:00;0;0
H2S;uur;�g/m�;20110110 15:00;20110110 16:00;0;0
H2S;uur;�g/m�;20110110 16:00;20110110 17:00;0;1
H2S;uur;�g/m�;20110110 17:00;20110110 18:00;0;1
H2S;uur;�g/m�;20110110 18:00;20110110 19:00;0;1
H2S;uur;�g/m�;20110110 19:00;20110110 20:00;0;1
H2S;uur;�g/m�;20110110 20:00;20110110 21:00;0;1
H2S;uur;�g/m�;20110110 21:00;20110110 22:00;0;1
H2S;uur;�g/m�;20110110 22:00;20110110 23:00;;
H2S;uur;�g/m�;20110110 23:00;20110111 00:00;1;1
H2S;uur;�g/m�;20110111 00:00;20110111 01:00;0;1
H2S;uur;�g/m�;20110111 01:00;20110111 02:00;0;1
H2S;uur;�g/m�;20110111 02:00;20110111 03:00;1;0
H2S;uur;�g/m�;20110111 03:00;20110111 04:00;0;0
H2S;uur;�g/m�;20110111 04:00;20110111 05:00;1;0
H2S;uur;�g/m�;20110111 05:00;20110111 06:00;1;0
H2S;uur;�g/m�;20110111 06:00;20110111 07:00;1;0
H2S;uur;�g/m�;20110111 07:00;20110111 08:00;1;0
H2S;uur;�g/m�;20110111 08:00;20110111 09:00;1;0
H2S;uur;�g/m�;20110111 09:00;20110111 10:00;0;0
H2S;uur;�g/m�;20110111 10:00;20110111 11:00;1;0
H2S;uur;�g/m�;20110111 11:00;20110111 12:00;1;1
H2S;uur;�g/m�;20110111 12:00;20110111 13:00;1;0
H2S;uur;�g/m�;20110111 13:00;20110111 14:00;1;2
H2S;uur;�g/m�;20110111 14:00;20110111 15:00;1;4
H2S;uur;�g/m�;20110111 15:00;20110111 16:00;0;0
H2S;uur;�g/m�;20110111 16:00;20110111 17:00;0;0
H2S;uur;�g/m�;20110111 17:00;20110111 18:00;0;0
H2S;uur;�g/m�;20110111 18:00;20110111 19:00;1;0
H2S;uur;�g/m�;20110111 19:00;20110111 20:00;0;0
H2S;uur;�g/m�;20110111 20:00;20110111 21:00;0;0
H2S;uur;�g/m�;20110111 21:00;20110111 22:00;0;0
H2S;uur;�g/m�;20110111 22:00;20110111 23:00;1;0
H2S;uur;�g/m�;20110111 23:00;20110112 00:00;1;0
H2S;uur;�g/m�;20110112 00:00;20110112 01:00;0;0
H2S;uur;�g/m�;20110112 01:00;20110112 02:00;0;0
H2S;uur;�g/m�;20110112 02:00;20110112 03:00;0;0
H2S;uur;�g/m�;20110112 03:00;20110112 04:00;0;0
H2S;uur;�g/m�;20110112 04:00;20110112 05:00;0;0
H2S;uur;�g/m�;20110112 05:00;20110112 06:00;0;0
H2S;uur;�g/m�;20110112 06:00;20110112 07:00;0;0
H2S;uur;�g/m�;20110112 07:00;20110112 08:00;0;4
H2S;uur;�g/m�;20110112 08:00;20110112 09:00;0;4
H2S;uur;�g/m�;20110112 09:00;20110112 10:00;0;0
H2S;uur;�g/m�;20110112 10:00;20110112 11:00;1;0
H2S;uur;�g/m�;20110112 11:00;20110112 12:00;1;0
H2S;uur;�g/m�;20110112 12:00;20110112 13:00;0;0
H2S;uur;�g/m�;20110112 13:00;20110112 14:00;1;1
H2S;uur;�g/m�;20110112 14:00;20110112 15:00;0;5
H2S;uur;�g/m�;20110112 15:00;20110112 16:00;1;4
H2S;uur;�g/m�;20110112 16:00;20110112 17:00;0;0
H2S;uur;�g/m�;20110112 17:00;20110112 18:00;1;1
H2S;uur;�g/m�;20110112 18:00;20110112 19:00;0;0
H2S;uur;�g/m�;20110112 19:00;20110112 20:00;0;0
H2S;uur;�g/m�;20110112 20:00;20110112 21:00;0;0
H2S;uur;�g/m�;20110112 21:00;20110112 22:00;0;0
H2S;uur;�g/m�;20110112 22:00;20110112 23:00;0;0
H2S;uur;�g/m�;20110112 23:00;20110113 00:00;;
H2S;uur;�g/m�;20110113 00:00;20110113 01:00;0;0
H2S;uur;�g/m�;20110113 01:00;20110113 02:00;0;0
H2S;uur;�g/m�;20110113 02:00;20110113 03:00;0;0
H2S;uur;�g/m�;20110113 03:00;20110113 04:00;0;0
H2S;uur;�g/m�;20110113 04:00;20110113 05:00;0;1
H2S;uur;�g/m�;20110113 05:00;20110113 06:00;0;1
H2S;uur;�g/m�;20110113 06:00;20110113 07:00;0;1
H2S;uur;�g/m�;20110113 07:00;20110113 08:00;0;2
H2S;uur;�g/m�;20110113 08:00;20110113 09:00;0;1
H2S;uur;�g/m�;20110113 09:00;20110113 10:00;0;0
H2S;uur;�g/m�;20110113 10:00;20110113 11:00;0;0
H2S;uur;�g/m�;20110113 11:00;20110113 12:00;0;0
H2S;uur;�g/m�;20110113 12:00;20110113 13:00;0;0
H2S;uur;�g/m�;20110113 13:00;20110113 14:00;0;0
H2S;uur;�g/m�;20110113 14:00;20110113 15:00;0;0
H2S;uur;�g/m�;20110113 15:00;20110113 16:00;0;0
H2S;uur;�g/m�;20110113 16:00;20110113 17:00;0;0
H2S;uur;�g/m�;20110113 17:00;20110113 18:00;0;0
H2S;uur;�g/m�;20110113 18:00;20110113 19:00;0;0
H2S;uur;�g/m�;20110113 19:00;20110113 20:00;0;0
H2S;uur;�g/m�;20110113 20:00;20110113 21:00;0;1
H2S;uur;�g/m�;20110113 21:00;20110113 22:00;0;1
H2S;uur;�g/m�;20110113 22:00;20110113 23:00;0;1
H2S;uur;�g/m�;20110113 23:00;20110114 00:00;0;0
H2S;uur;�g/m�;20110114 00:00;20110114 01:00;0;1
H2S;uur;�g/m�;20110114 01:00;20110114 02:00;0;0
H2S;uur;�g/m�;20110114 02:00;20110114 03:00;0;0
H2S;uur;�g/m�;20110114 03:00;20110114 04:00;0;0
H2S;uur;�g/m�;20110114 04:00;20110114 05:00;0;0
H2S;uur;�g/m�;20110114 05:00;20110114 06:00;0;0
H2S;uur;�g/m�;20110114 06:00;20110114 07:00;0;0
H2S;uur;�g/m�;20110114 07:00;20110114 08:00;0;0
H2S;uur;�g/m�;20110114 08:00;20110114 09:00;0;0
H2S;uur;�g/m�;20110114 09:00;20110114 10:00;0;0
H2S;uur;�g/m�;20110114 10:00;20110114 11:00;0;0
H2S;uur;�g/m�;20110114 11:00;20110114 12:00;0;0
H2S;uur;�g/m�;20110114 12:00;20110114 13:00;0;0
H2S;uur;�g/m�;20110114 13:00;20110114 14:00;0;0
H2S;uur;�g/m�;20110114 14:00;20110114 15:00;0;1
H2S;uur;�g/m�;20110114 15:00;20110114 16:00;0;1
H2S;uur;�g/m�;20110114 16:00;20110114 17:00;0;0
H2S;uur;�g/m�;20110114 17:00;20110114 18:00;0;0
H2S;uur;�g/m�;20110114 18:00;20110114 19:00;0;0
H2S;uur;�g/m�;20110114 19:00;20110114 20:00;0;0
H2S;uur;�g/m�;20110114 20:00;20110114 21:00;0;0
H2S;uur;�g/m�;20110114 21:00;20110114 22:00;0;0
H2S;uur;�g/m�;20110114 22:00;20110114 23:00;0;0
H2S;uur;�g/m�;20110114 23:00;20110115 00:00;0;0
H2S;uur;�g/m�;20110115 00:00;20110115 01:00;;
H2S;uur;�g/m�;20110115 01:00;20110115 02:00;0;0
H2S;uur;�g/m�;20110115 02:00;20110115 03:00;0;0
H2S;uur;�g/m�;20110115 03:00;20110115 04:00;0;0
H2S;uur;�g/m�;20110115 04:00;20110115 05:00;0;0
H2S;uur;�g/m�;20110115 05:00;20110115 06:00;0;0
H2S;uur;�g/m�;20110115 06:00;20110115 07:00;0;2
H2S;uur;�g/m�;20110115 07:00;20110115 08:00;0;2
H2S;uur;�g/m�;20110115 08:00;20110115 09:00;0;2
H2S;uur;�g/m�;20110115 09:00;20110115 10:00;0;1
H2S;uur;�g/m�;20110115 10:00;20110115 11:00;0;1
H2S;uur;�g/m�;20110115 11:00;20110115 12:00;0;7
H2S;uur;�g/m�;20110115 12:00;20110115 13:00;0;3
H2S;uur;�g/m�;20110115 13:00;20110115 14:00;0;4
H2S;uur;�g/m�;20110115 14:00;20110115 15:00;0;4
H2S;uur;�g/m�;20110115 15:00;20110115 16:00;0;1
H2S;uur;�g/m�;20110115 16:00;20110115 17:00;0;0
H2S;uur;�g/m�;20110115 17:00;20110115 18:00;0;2
H2S;uur;�g/m�;20110115 18:00;20110115 19:00;0;6
H2S;uur;�g/m�;20110115 19:00;20110115 20:00;0;7
H2S;uur;�g/m�;20110115 20:00;20110115 21:00;0;6
H2S;uur;�g/m�;20110115 21:00;20110115 22:00;0;6
H2S;uur;�g/m�;20110115 22:00;20110115 23:00;0;4
H2S;uur;�g/m�;20110115 23:00;20110116 00:00;0;8
H2S;uur;�g/m�;20110116 00:00;20110116 01:00;0;7
H2S;uur;�g/m�;20110116 01:00;20110116 02:00;0;5
H2S;uur;�g/m�;20110116 02:00;20110116 03:00;0;7
H2S;uur;�g/m�;20110116 03:00;20110116 04:00;0;6
H2S;uur;�g/m�;20110116 04:00;20110116 05:00;0;6
H2S;uur;�g/m�;20110116 05:00;20110116 06:00;0;2
H2S;uur;�g/m�;20110116 06:00;20110116 07:00;0;5
H2S;uur;�g/m�;20110116 07:00;20110116 08:00;0;4
H2S;uur;�g/m�;20110116 08:00;20110116 09:00;0;4
H2S;uur;�g/m�;20110116 09:00;20110116 10:00;0;2
H2S;uur;�g/m�;20110116 10:00;20110116 11:00;0;6
H2S;uur;�g/m�;20110116 11:00;20110116 12:00;0;4
H2S;uur;�g/m�;20110116 12:00;20110116 13:00;0;5
H2S;uur;�g/m�;20110116 13:00;20110116 14:00;0;7
H2S;uur;�g/m�;20110116 14:00;20110116 15:00;0;7
H2S;uur;�g/m�;20110116 15:00;20110116 16:00;0;7
H2S;uur;�g/m�;20110116 16:00;20110116 17:00;0;6
H2S;uur;�g/m�;20110116 17:00;20110116 18:00;0;3
H2S;uur;�g/m�;20110116 18:00;20110116 19:00;0;12
H2S;uur;�g/m�;20110116 19:00;20110116 20:00;0;7
H2S;uur;�g/m�;20110116 20:00;20110116 21:00;0;9
H2S;uur;�g/m�;20110116 21:00;20110116 22:00;0;8
H2S;uur;�g/m�;20110116 22:00;20110116 23:00;0;4
H2S;uur;�g/m�;20110116 23:00;20110117 00:00;0;6
H2S;uur;�g/m�;20110117 00:00;20110117 01:00;0;7
H2S;uur;�g/m�;20110117 01:00;20110117 02:00;;
H2S;uur;�g/m�;20110117 02:00;20110117 03:00;0;6
H2S;uur;�g/m�;20110117 03:00;20110117 04:00;0;4
H2S;uur;�g/m�;20110117 04:00;20110117 05:00;0;5
H2S;uur;�g/m�;20110117 05:00;20110117 06:00;0;5
H2S;uur;�g/m�;20110117 06:00;20110117 07:00;0;9
H2S;uur;�g/m�;20110117 07:00;20110117 08:00;0;9
H2S;uur;�g/m�;20110117 08:00;20110117 09:00;0;6
H2S;uur;�g/m�;20110117 09:00;20110117 10:00;0;7
H2S;uur;�g/m�;20110117 10:00;20110117 11:00;0;6
H2S;uur;�g/m�;20110117 11:00;20110117 12:00;0;0
H2S;uur;�g/m�;20110117 12:00;20110117 13:00;0;0
H2S;uur;�g/m�;20110117 13:00;20110117 14:00;0;0
H2S;uur;�g/m�;20110117 14:00;20110117 15:00;0;0
H2S;uur;�g/m�;20110117 15:00;20110117 16:00;1;0
H2S;uur;�g/m�;20110117 16:00;20110117 17:00;0;5
H2S;uur;�g/m�;20110117 17:00;20110117 18:00;0;4
H2S;uur;�g/m�;20110117 18:00;20110117 19:00;0;8
H2S;uur;�g/m�;20110117 19:00;20110117 20:00;0;
H2S;uur;�g/m�;20110117 20:00;20110117 21:00;2;
H2S;uur;�g/m�;20110117 21:00;20110117 22:00;1;
H2S;uur;�g/m�;20110117 22:00;20110117 23:00;0;
H2S;uur;�g/m�;20110117 23:00;20110118 00:00;0;
H2S;uur;�g/m�;20110118 00:00;20110118 01:00;0;
H2S;uur;�g/m�;20110118 01:00;20110118 02:00;0;
H2S;uur;�g/m�;20110118 02:00;20110118 03:00;0;
H2S;uur;�g/m�;20110118 03:00;20110118 04:00;0;
H2S;uur;�g/m�;20110118 04:00;20110118 05:00;0;
H2S;uur;�g/m�;20110118 05:00;20110118 06:00;0;
H2S;uur;�g/m�;20110118 06:00;20110118 07:00;1;
H2S;uur;�g/m�;20110118 07:00;20110118 08:00;1;
H2S;uur;�g/m�;20110118 08:00;20110118 09:00;1;
H2S;uur;�g/m�;20110118 09:00;20110118 10:00;0;
H2S;uur;�g/m�;20110118 10:00;20110118 11:00;0;
H2S;uur;�g/m�;20110118 11:00;20110118 12:00;0;
H2S;uur;�g/m�;20110118 12:00;20110118 13:00;0;
H2S;uur;�g/m�;20110118 13:00;20110118 14:00;1;
H2S;uur;�g/m�;20110118 14:00;20110118 15:00;0;
H2S;uur;�g/m�;20110118 15:00;20110118 16:00;0;
H2S;uur;�g/m�;20110118 16:00;20110118 17:00;0;
H2S;uur;�g/m�;20110118 17:00;20110118 18:00;1;
H2S;uur;�g/m�;20110118 18:00;20110118 19:00;8;
H2S;uur;�g/m�;20110118 19:00;20110118 20:00;0;
H2S;uur;�g/m�;20110118 20:00;20110118 21:00;0;
H2S;uur;�g/m�;20110118 21:00;20110118 22:00;1;
H2S;uur;�g/m�;20110118 22:00;20110118 23:00;4;
H2S;uur;�g/m�;20110118 23:00;20110119 00:00;5;
H2S;uur;�g/m�;20110119 00:00;20110119 01:00;0;
H2S;uur;�g/m�;20110119 01:00;20110119 02:00;0;
H2S;uur;�g/m�;20110119 02:00;20110119 03:00;;
H2S;uur;�g/m�;20110119 03:00;20110119 04:00;2;
H2S;uur;�g/m�;20110119 04:00;20110119 05:00;1;
H2S;uur;�g/m�;20110119 05:00;20110119 06:00;1;
H2S;uur;�g/m�;20110119 06:00;20110119 07:00;1;
H2S;uur;�g/m�;20110119 07:00;20110119 08:00;1;
H2S;uur;�g/m�;20110119 08:00;20110119 09:00;1;
H2S;uur;�g/m�;20110119 09:00;20110119 10:00;1;
H2S;uur;�g/m�;20110119 10:00;20110119 11:00;1;
H2S;uur;�g/m�;20110119 11:00;20110119 12:00;1;
H2S;uur;�g/m�;20110119 12:00;20110119 13:00;1;
H2S;uur;�g/m�;20110119 13:00;20110119 14:00;2;
H2S;uur;�g/m�;20110119 14:00;20110119 15:00;1;
H2S;uur;�g/m�;20110119 15:00;20110119 16:00;6;
H2S;uur;�g/m�;20110119 16:00;20110119 17:00;9;
H2S;uur;�g/m�;20110119 17:00;20110119 18:00;2;
H2S;uur;�g/m�;20110119 18:00;20110119 19:00;2;
H2S;uur;�g/m�;20110119 19:00;20110119 20:00;2;
H2S;uur;�g/m�;20110119 20:00;20110119 21:00;4;
H2S;uur;�g/m�;20110119 21:00;20110119 22:00;4;
H2S;uur;�g/m�;20110119 22:00;20110119 23:00;3;
H2S;uur;�g/m�;20110119 23:00;20110120 00:00;1;
H2S;uur;�g/m�;20110120 00:00;20110120 01:00;1;
H2S;uur;�g/m�;20110120 01:00;20110120 02:00;1;
H2S;uur;�g/m�;20110120 02:00;20110120 03:00;1;
H2S;uur;�g/m�;20110120 03:00;20110120 04:00;1;
H2S;uur;�g/m�;20110120 04:00;20110120 05:00;1;
H2S;uur;�g/m�;20110120 05:00;20110120 06:00;1;
H2S;uur;�g/m�;20110120 06:00;20110120 07:00;1;
H2S;uur;�g/m�;20110120 07:00;20110120 08:00;2;
H2S;uur;�g/m�;20110120 08:00;20110120 09:00;3;
H2S;uur;�g/m�;20110120 09:00;20110120 10:00;2;
H2S;uur;�g/m�;20110120 10:00;20110120 11:00;2;
H2S;uur;�g/m�;20110120 11:00;20110120 12:00;1;
H2S;uur;�g/m�;20110120 12:00;20110120 13:00;2;
H2S;uur;�g/m�;20110120 13:00;20110120 14:00;2;
H2S;uur;�g/m�;20110120 14:00;20110120 15:00;1;
H2S;uur;�g/m�;20110120 15:00;20110120 16:00;3;
H2S;uur;�g/m�;20110120 16:00;20110120 17:00;2;
H2S;uur;�g/m�;20110120 17:00;20110120 18:00;2;